TimeCDT,TemperatureF,Dew PointF,Humidity,Sea Level PressureIn,VisibilityMPH,Wind Direction,Wind SpeedMPH,Gust SpeedMPH,PrecipitationIn,Events,Conditions,WindDirDegrees,DateUTC
12:53 AM,75.9,73.0,91,30.08,10.0,Calm,Calm,-,N/A,,Clear,0,2013-09-06 05:53:00
1:53 AM,75.9,73.0,91,30.06,10.0,Calm,Calm,-,N/A,,Clear,0,2013-09-06 06:53:00
2:53 AM,75.9,73.0,91,30.05,10.0,Calm,Calm,-,N/A,,Clear,0,2013-09-06 07:53:00
3:53 AM,75.9,72.0,87,30.04,10.0,North,3.5,-,N/A,,Clear,350,2013-09-06 08:53:00
4:53 AM,75.9,72.0,87,30.05,10.0,NNE,3.5,-,N/A,,Clear,20,2013-09-06 09:53:00
5:53 AM,75.0,73.0,94,30.05,10.0,NNE,3.5,-,0.01,,Clear,20,2013-09-06 10:53:00
6:53 AM,75.9,73.0,91,30.07,7.0,NNE,3.5,-,N/A,,Clear,20,2013-09-06 11:53:00
7:53 AM,80.1,71.1,74,30.09,10.0,NE,3.5,-,N/A,,Clear,40,2013-09-06 12:53:00
8:53 AM,82.0,69.1,65,30.10,10.0,Calm,Calm,-,N/A,,Clear,0,2013-09-06 13:53:00
9:53 AM,84.9,69.1,59,30.10,10.0,ENE,4.6,-,N/A,,Clear,60,2013-09-06 14:53:00
10:53 AM,88.0,69.1,53,30.11,10.0,NNE,4.6,-,N/A,,Clear,30,2013-09-06 15:53:00
11:53 AM,89.1,68.0,50,30.10,10.0,ENE,4.6,-,N/A,,Scattered Clouds,60,2013-09-06 16:53:00
12:53 PM,90.0,68.0,48,30.08,10.0,Variable,3.5,-,N/A,,Partly Cloudy,0,2013-09-06 17:53:00
1:53 PM,91.0,68.0,47,30.05,10.0,Variable,3.5,-,N/A,,Mostly Cloudy,0,2013-09-06 18:53:00
2:53 PM,90.0,68.0,48,30.03,10.0,Variable,3.5,-,N/A,,Mostly Cloudy,0,2013-09-06 19:53:00
3:53 PM,89.1,70.0,53,30.01,10.0,SE,4.6,-,N/A,,Mostly Cloudy,130,2013-09-06 20:53:00
4:53 PM,88.0,71.1,57,30.00,10.0,South,5.8,-,N/A,,Scattered Clouds,180,2013-09-06 21:53:00
5:53 PM,90.0,66.9,46,30.00,10.0,North,4.6,-,N/A,,Mostly Cloudy,360,2013-09-06 22:53:00
6:53 PM,84.0,71.1,65,30.00,10.0,SW,4.6,-,N/A,,Clear,220,2013-09-06 23:53:00
7:53 PM,82.0,71.1,69,30.01,10.0,Calm,Calm,-,N/A,,Clear,0,2013-09-07 00:53:00
8:53 PM,81.0,71.1,72,30.03,10.0,NNE,3.5,-,N/A,,Clear,30,2013-09-07 01:53:00
9:53 PM,79.0,70.0,74,30.03,10.0,Calm,Calm,-,N/A,,Clear,0,2013-09-07 02:53:00
10:53 PM,77.0,70.0,79,30.02,10.0,NE,3.5,-,N/A,,Clear,50,2013-09-07 03:53:00
11:53 PM,77.0,68.0,74,30.02,10.0,Calm,Calm,-,N/A,,Clear,0,2013-09-07 04:53:00